Year,Month,Day,Hour,Minute,Value (Times are PST for temperature in C)
2006,03,14,00,00,6.80
2006,03,14,00,01,6.80
2006,03,14,00,02,6.70
2006,03,14,00,03,6.70
2006,03,14,00,04,6.70
2006,03,14,00,05,6.70
2006,03,14,00,06,6.60
2006,03,14,00,07,6.60
2006,03,14,00,08,6.60
2006,03,14,00,09,6.60
2006,03,14,00,10,6.60
2006,03,14,00,11,6.60
2006,03,14,00,12,6.60
2006,03,14,00,13,6.60
2006,03,14,00,14,6.60
2006,03,14,00,15,6.60
2006,03,14,00,16,6.60
2006,03,14,00,17,6.60
2006,03,14,00,18,6.60
2006,03,14,00,19,6.40
2006,03,14,00,20,6.40
2006,03,14,00,21,6.40
2006,03,14,00,22,6.40
2006,03,14,00,23,6.40
2006,03,14,00,24,6.40
2006,03,14,00,25,6.40
2006,03,14,00,26,6.40
2006,03,14,00,27,6.30
2006,03,14,00,28,6.30
2006,03,14,00,29,6.30
2006,03,14,00,30,6.20
2006,03,14,00,31,6.20
2006,03,14,00,32,6.20
2006,03,14,00,33,6.20
2006,03,14,00,34,6.20
2006,03,14,00,35,6.20
2006,03,14,00,36,6.30
2006,03,14,00,37,6.30
2006,03,14,00,38,6.20
2006,03,14,00,39,6.20
2006,03,14,00,40,6.20
2006,03,14,00,41,6.20
2006,03,14,00,42,6.20
2006,03,14,00,43,6.20
2006,03,14,00,44,6.20
2006,03,14,00,45,6.20
2006,03,14,00,46,6.20
2006,03,14,00,47,6.20
2006,03,14,00,48,6.20
2006,03,14,00,49,6.20
2006,03,14,00,50,6.20
2006,03,14,00,51,6.20
2006,03,14,00,52,6.20
2006,03,14,00,53,6.20
2006,03,14,00,54,6.20
2006,03,14,00,55,6.20
2006,03,14,00,56,6.20
2006,03,14,00,57,6.20
2006,03,14,00,58,6.20
2006,03,14,00,59,6.20
2006,03,14,01,00,6.20
2006,03,14,01,01,6.20
2006,03,14,01,02,6.20
2006,03,14,01,03,6.20
2006,03,14,01,04,6.20
2006,03,14,01,05,6.20
2006,03,14,01,06,6.20
2006,03,14,01,07,6.30
2006,03,14,01,08,6.30
2006,03,14,01,09,6.30
2006,03,14,01,10,6.30
2006,03,14,01,11,6.30
2006,03,14,01,12,6.30
2006,03,14,01,13,6.30
2006,03,14,01,14,6.30
2006,03,14,01,15,6.40
2006,03,14,01,16,6.40
2006,03,14,01,17,6.40
2006,03,14,01,18,6.40
2006,03,14,01,19,6.40
2006,03,14,01,20,6.40
2006,03,14,01,21,6.40
2006,03,14,01,22,6.40
2006,03,14,01,23,6.40
2006,03,14,01,24,6.40
2006,03,14,01,25,6.40
2006,03,14,01,26,6.40
2006,03,14,01,27,6.40
2006,03,14,01,28,6.40
2006,03,14,01,29,6.40
2006,03,14,01,30,6.30
2006,03,14,01,31,6.30
2006,03,14,01,32,6.20
2006,03,14,01,33,6.20
2006,03,14,01,34,6.20
2006,03,14,01,35,6.20
2006,03,14,01,36,6.20
2006,03,14,01,37,6.10
2006,03,14,01,38,6.10
2006,03,14,01,39,6.00
2006,03,14,01,40,6.00
2006,03,14,01,41,6.00
2006,03,14,01,42,6.00
2006,03,14,01,43,6.00
2006,03,14,01,44,5.90
2006,03,14,01,45,5.90
2006,03,14,01,46,5.90
2006,03,14,01,47,5.90
2006,03,14,01,48,5.90
2006,03,14,01,49,5.80
2006,03,14,01,50,5.80
2006,03,14,01,51,5.90
2006,03,14,01,52,5.90
2006,03,14,01,53,5.90
2006,03,14,01,54,5.90
2006,03,14,01,55,6.00
2006,03,14,01,56,6.00
2006,03,14,01,57,6.00
2006,03,14,01,58,6.00
2006,03,14,01,59,6.00
2006,03,14,02,00,6.00
2006,03,14,02,01,6.00
2006,03,14,02,02,6.00
2006,03,14,02,03,6.00
2006,03,14,02,04,6.00
2006,03,14,02,05,6.00
2006,03,14,02,06,6.00
2006,03,14,02,07,6.10
2006,03,14,02,08,6.10
2006,03,14,02,09,6.10
2006,03,14,02,10,6.10
2006,03,14,02,11,6.10
2006,03,14,02,12,6.10
2006,03,14,02,13,6.10
2006,03,14,02,14,6.20
2006,03,14,02,15,6.20
2006,03,14,02,16,6.20
2006,03,14,02,17,6.20
2006,03,14,02,18,6.20
2006,03,14,02,19,6.20
2006,03,14,02,20,6.20
2006,03,14,02,21,6.20
2006,03,14,02,22,6.20
2006,03,14,02,23,6.30
2006,03,14,02,24,6.30
2006,03,14,02,25,6.30
2006,03,14,02,26,6.30
2006,03,14,02,27,6.30
2006,03,14,02,28,6.30
2006,03,14,02,29,6.30
2006,03,14,02,30,6.30
2006,03,14,02,31,6.20
2006,03,14,02,32,6.20
2006,03,14,02,33,6.20
2006,03,14,02,34,6.20
2006,03,14,02,35,6.20
2006,03,14,02,36,6.20
2006,03,14,02,37,6.20
2006,03,14,02,38,6.20
2006,03,14,02,39,6.20
2006,03,14,02,40,6.20
2006,03,14,02,41,6.20
2006,03,14,02,42,6.20
2006,03,14,02,43,6.20
2006,03,14,02,44,6.20
2006,03,14,02,45,6.20
2006,03,14,02,46,6.20
2006,03,14,02,47,6.20
2006,03,14,02,48,6.20
2006,03,14,02,49,6.20
2006,03,14,02,50,6.20
2006,03,14,02,51,6.20
2006,03,14,02,52,6.20
2006,03,14,02,53,6.20
2006,03,14,02,54,6.20
2006,03,14,02,55,6.20
2006,03,14,02,56,6.20
2006,03,14,02,57,6.20
2006,03,14,02,58,6.20
2006,03,14,02,59,6.20
2006,03,14,03,00,6.20
2006,03,14,03,01,6.20
2006,03,14,03,02,6.20
2006,03,14,03,03,6.20
2006,03,14,03,04,6.20
2006,03,14,03,05,6.20
2006,03,14,03,06,6.20
2006,03,14,03,07,6.20
2006,03,14,03,08,6.20
2006,03,14,03,09,6.20
2006,03,14,03,10,6.20
2006,03,14,03,11,6.20
2006,03,14,03,12,6.20
2006,03,14,03,13,6.20
2006,03,14,03,14,6.10
2006,03,14,03,15,6.10
2006,03,14,03,16,6.10
2006,03,14,03,17,6.10
2006,03,14,03,18,6.10
2006,03,14,03,19,6.10
2006,03,14,03,20,6.10
2006,03,14,03,21,6.10
2006,03,14,03,22,6.10
2006,03,14,03,23,6.20
2006,03,14,03,24,6.20
2006,03,14,03,25,6.10
2006,03,14,03,26,6.10
2006,03,14,03,27,6.10
2006,03,14,03,28,6.10
2006,03,14,03,29,6.10
2006,03,14,03,30,6.10
2006,03,14,03,31,6.10
2006,03,14,03,32,6.10
2006,03,14,03,33,6.00
2006,03,14,03,34,6.00
2006,03,14,03,35,6.00
2006,03,14,03,36,6.00
2006,03,14,03,37,6.00
2006,03,14,03,38,6.00
2006,03,14,03,39,6.00
2006,03,14,03,40,6.00
2006,03,14,03,41,6.00
2006,03,14,03,42,6.00
2006,03,14,03,43,6.00
2006,03,14,03,44,6.00
2006,03,14,03,45,6.00
2006,03,14,03,46,6.00
2006,03,14,03,47,6.10
2006,03,14,03,48,6.10
2006,03,14,03,49,6.10
2006,03,14,03,50,6.10
2006,03,14,03,51,6.10
2006,03,14,03,52,6.10
2006,03,14,03,53,6.10
2006,03,14,03,54,6.10
2006,03,14,03,55,6.10
2006,03,14,03,56,6.00
2006,03,14,03,57,6.00
2006,03,14,03,58,6.00
2006,03,14,03,59,6.00
2006,03,14,04,00,6.00
2006,03,14,04,01,6.00
2006,03,14,04,02,6.00
2006,03,14,04,03,6.00
2006,03,14,04,04,6.00
2006,03,14,04,05,6.00
2006,03,14,04,06,6.00
2006,03,14,04,07,6.00
2006,03,14,04,08,6.00
2006,03,14,04,09,6.00
2006,03,14,04,10,6.00
2006,03,14,04,11,6.00
2006,03,14,04,12,6.00
2006,03,14,04,13,6.00
2006,03,14,04,14,6.00
2006,03,14,04,15,6.00
2006,03,14,04,16,6.00
2006,03,14,04,17,6.00
2006,03,14,04,18,6.00
2006,03,14,04,19,6.00
2006,03,14,04,20,5.90
2006,03,14,04,21,5.90
2006,03,14,04,22,5.90
2006,03,14,04,23,5.90
2006,03,14,04,24,5.90
2006,03,14,04,25,5.80
2006,03,14,04,26,5.80
2006,03,14,04,27,5.80
2006,03,14,04,28,5.80
2006,03,14,04,29,5.80
2006,03,14,04,30,5.80
2006,03,14,04,31,5.80
2006,03,14,04,32,5.70
2006,03,14,04,33,5.70
2006,03,14,04,34,5.70
2006,03,14,04,35,5.70
2006,03,14,04,36,5.70
2006,03,14,04,37,5.70
2006,03,14,04,38,5.70
2006,03,14,04,39,5.70
2006,03,14,04,40,5.70
2006,03,14,04,41,5.70
2006,03,14,04,42,5.70
2006,03,14,04,43,5.70
2006,03,14,04,44,5.70
2006,03,14,04,45,5.70
2006,03,14,04,46,5.70
2006,03,14,04,47,5.70
2006,03,14,04,48,5.60
2006,03,14,04,49,5.60
2006,03,14,04,50,5.60
2006,03,14,04,51,5.60
2006,03,14,04,52,5.60
2006,03,14,04,53,5.60
2006,03,14,04,54,5.60
2006,03,14,04,55,5.50
2006,03,14,04,56,5.50
2006,03,14,04,57,5.50
2006,03,14,04,58,5.50
2006,03,14,04,59,5.50
2006,03,14,05,00,5.50
2006,03,14,05,01,5.50
2006,03,14,05,02,5.50
2006,03,14,05,03,5.50
2006,03,14,05,04,5.50
2006,03,14,05,05,5.50
2006,03,14,05,06,5.50
2006,03,14,05,07,5.50
2006,03,14,05,08,5.50
2006,03,14,05,09,5.40
2006,03,14,05,10,5.40
2006,03,14,05,11,5.50
2006,03,14,05,12,5.50
2006,03,14,05,13,5.50
2006,03,14,05,14,5.50
2006,03,14,05,15,5.50
2006,03,14,05,16,5.50
2006,03,14,05,17,5.50
2006,03,14,05,18,5.50
2006,03,14,05,19,5.50
2006,03,14,05,20,5.50
2006,03,14,05,21,5.50
2006,03,14,05,22,5.50
2006,03,14,05,23,5.50
2006,03,14,05,24,5.50
2006,03,14,05,25,5.40
2006,03,14,05,26,5.40
2006,03,14,05,27,5.40
2006,03,14,05,28,5.40
2006,03,14,05,29,5.40
2006,03,14,05,30,5.40
2006,03,14,05,31,5.40
2006,03,14,05,32,5.40
2006,03,14,05,33,5.40
2006,03,14,05,34,5.40
2006,03,14,05,35,5.40
2006,03,14,05,36,5.40
2006,03,14,05,37,5.40
2006,03,14,05,38,5.40
2006,03,14,05,39,5.40
2006,03,14,05,40,5.40
2006,03,14,05,41,5.40
2006,03,14,05,42,5.40
2006,03,14,05,43,5.40
2006,03,14,05,44,5.40
2006,03,14,05,45,5.40
2006,03,14,05,46,5.40
2006,03,14,05,47,5.40
2006,03,14,05,48,5.40
2006,03,14,05,49,5.40
2006,03,14,05,50,5.40
2006,03,14,05,51,5.40
2006,03,14,05,52,5.40
2006,03,14,05,53,5.40
2006,03,14,05,54,5.40
2006,03,14,05,55,5.40
2006,03,14,05,56,5.40
2006,03,14,05,57,5.40
2006,03,14,05,58,5.40
2006,03,14,05,59,5.40
2006,03,14,06,00,5.40
2006,03,14,06,01,5.40
2006,03,14,06,02,5.40
2006,03,14,06,03,5.40
2006,03,14,06,04,5.40
2006,03,14,06,05,5.40
2006,03,14,06,06,5.40
2006,03,14,06,07,5.40
2006,03,14,06,08,5.40
2006,03,14,06,09,5.40
2006,03,14,06,10,5.40
2006,03,14,06,11,5.40
2006,03,14,06,12,5.40
2006,03,14,06,13,5.40
2006,03,14,06,14,5.40
2006,03,14,06,15,5.40
2006,03,14,06,16,5.40
2006,03,14,06,17,5.40
2006,03,14,06,18,5.40
2006,03,14,06,19,5.40
2006,03,14,06,20,5.40
2006,03,14,06,21,5.40
2006,03,14,06,22,5.40
2006,03,14,06,23,5.30
2006,03,14,06,24,5.30
2006,03,14,06,25,5.30
2006,03,14,06,26,5.30
2006,03,14,06,27,5.30
2006,03,14,06,28,5.30
2006,03,14,06,29,5.30
2006,03,14,06,30,5.30
2006,03,14,06,31,5.30
2006,03,14,06,32,5.30
2006,03,14,06,33,5.30
2006,03,14,06,34,5.30
2006,03,14,06,35,5.30
2006,03,14,06,36,5.30
2006,03,14,06,37,5.30
2006,03,14,06,38,5.30
2006,03,14,06,39,5.30
2006,03,14,06,40,5.30
2006,03,14,06,41,5.30
2006,03,14,06,42,5.30
2006,03,14,06,43,5.30
2006,03,14,06,44,5.30
2006,03,14,06,45,5.30
2006,03,14,06,46,5.30
2006,03,14,06,47,5.30
2006,03,14,06,48,5.30
2006,03,14,06,49,5.30
2006,03,14,06,50,5.30
2006,03,14,06,51,5.30
2006,03,14,06,52,5.30
2006,03,14,06,53,5.30
2006,03,14,06,54,5.30
2006,03,14,06,55,5.30
2006,03,14,06,56,5.30
2006,03,14,06,57,5.30
2006,03,14,06,58,5.30
2006,03,14,06,59,5.30
2006,03,14,07,00,5.40
2006,03,14,07,01,5.40
2006,03,14,07,02,5.40
2006,03,14,07,03,5.50
2006,03,14,07,04,5.50
2006,03,14,07,05,5.50
2006,03,14,07,06,5.50
2006,03,14,07,07,5.60
2006,03,14,07,08,5.60
2006,03,14,07,09,5.60
2006,03,14,07,10,5.60
2006,03,14,07,11,5.50
2006,03,14,07,12,5.50
2006,03,14,07,13,5.50
2006,03,14,07,14,5.50
2006,03,14,07,15,5.50
2006,03,14,07,16,5.50
2006,03,14,07,17,5.60
2006,03,14,07,18,5.60
2006,03,14,07,19,5.60
2006,03,14,07,20,5.60
2006,03,14,07,21,5.60
2006,03,14,07,22,5.60
2006,03,14,07,23,5.60
2006,03,14,07,24,5.60
2006,03,14,07,25,5.60
2006,03,14,07,26,5.60
2006,03,14,07,27,5.60
2006,03,14,07,28,5.60
2006,03,14,07,29,5.60
2006,03,14,07,30,5.60
2006,03,14,07,31,5.60
2006,03,14,07,32,5.60
2006,03,14,07,33,5.60
2006,03,14,07,34,5.60
2006,03,14,07,35,5.60
2006,03,14,07,36,5.60
2006,03,14,07,37,5.60
2006,03,14,07,38,5.60
2006,03,14,07,39,5.60
2006,03,14,07,40,5.60
2006,03,14,07,41,5.60
2006,03,14,07,42,5.60
2006,03,14,07,43,5.60
2006,03,14,07,44,5.60
2006,03,14,07,45,5.60
2006,03,14,07,46,5.60
2006,03,14,07,47,5.60
2006,03,14,07,48,5.60
2006,03,14,07,49,5.60
2006,03,14,07,50,5.60
2006,03,14,07,51,5.60
2006,03,14,07,52,5.60
2006,03,14,07,53,5.60
2006,03,14,07,54,5.60
2006,03,14,07,55,5.60
2006,03,14,07,56,5.60
2006,03,14,07,57,5.50
2006,03,14,07,58,5.50
2006,03,14,07,59,5.50
2006,03,14,08,00,5.50
2006,03,14,08,01,5.40
2006,03,14,08,02,5.40
2006,03,14,08,03,5.40
2006,03,14,08,04,5.40
2006,03,14,08,05,5.40
2006,03,14,08,06,5.40
2006,03,14,08,07,5.40
2006,03,14,08,08,5.30
2006,03,14,08,09,5.30
2006,03,14,08,10,5.30
2006,03,14,08,11,5.30
2006,03,14,08,12,5.30
2006,03,14,08,13,5.30
2006,03,14,08,14,5.30
2006,03,14,08,15,5.30
2006,03,14,08,16,5.30
2006,03,14,08,17,5.30
2006,03,14,08,18,5.30
2006,03,14,08,19,5.30
2006,03,14,08,20,5.40
2006,03,14,08,21,5.40
2006,03,14,08,22,5.40
2006,03,14,08,23,5.40
2006,03,14,08,24,5.50
2006,03,14,08,25,5.50
2006,03,14,08,26,5.50
2006,03,14,08,27,5.50
2006,03,14,08,28,5.50
2006,03,14,08,29,5.50
2006,03,14,08,30,5.50
2006,03,14,08,31,5.70
2006,03,14,08,32,5.70
2006,03,14,08,33,5.70
2006,03,14,08,34,5.80
2006,03,14,08,35,5.80
2006,03,14,08,36,5.90
2006,03,14,08,37,5.90
2006,03,14,08,38,5.90
2006,03,14,08,39,6.00
2006,03,14,08,40,6.10
2006,03,14,08,41,6.10
2006,03,14,08,42,6.20
2006,03,14,08,43,6.20
2006,03,14,08,44,6.30
2006,03,14,08,45,6.40
2006,03,14,08,46,6.50
2006,03,14,08,47,6.60
2006,03,14,08,48,6.60
2006,03,14,08,49,6.70
2006,03,14,08,50,6.70
2006,03,14,08,51,6.70
2006,03,14,08,52,6.70
2006,03,14,08,53,6.70
2006,03,14,08,54,6.70
2006,03,14,08,55,6.70
2006,03,14,08,56,6.70
2006,03,14,08,57,6.70
2006,03,14,08,58,6.70
2006,03,14,08,59,6.70
2006,03,14,09,00,6.70
2006,03,14,09,01,6.70
2006,03,14,09,02,6.70
2006,03,14,09,03,6.70
2006,03,14,09,04,6.70
2006,03,14,09,05,6.70
2006,03,14,09,06,6.70
2006,03,14,09,07,6.70
2006,03,14,09,08,6.70
2006,03,14,09,09,6.70
2006,03,14,09,10,6.70
2006,03,14,09,11,6.80
2006,03,14,09,12,6.80
2006,03,14,09,13,6.80
2006,03,14,09,14,6.80
2006,03,14,09,15,6.80
2006,03,14,09,16,6.80
2006,03,14,09,17,6.80
2006,03,14,09,18,6.80
2006,03,14,09,19,6.80
2006,03,14,09,20,6.80
2006,03,14,09,21,6.90
2006,03,14,09,22,6.90
2006,03,14,09,23,6.90
2006,03,14,09,24,6.90
2006,03,14,09,25,6.90
2006,03,14,09,26,6.90
2006,03,14,09,27,6.90
2006,03,14,09,28,7.00
2006,03,14,09,29,7.00
2006,03,14,09,30,7.00
2006,03,14,09,31,7.00
2006,03,14,09,32,7.00
2006,03,14,09,33,7.00
2006,03,14,09,34,7.00
2006,03,14,09,35,7.00
2006,03,14,09,36,7.00
2006,03,14,09,37,7.10
2006,03,14,09,38,7.30
2006,03,14,09,39,7.30
2006,03,14,09,40,7.40
2006,03,14,09,41,7.50
2006,03,14,09,42,7.60
2006,03,14,09,43,7.70
2006,03,14,09,44,7.80
2006,03,14,09,45,7.80
2006,03,14,09,46,7.90
2006,03,14,09,47,8.00
2006,03,14,09,48,8.10
2006,03,14,09,49,8.10
2006,03,14,09,50,8.20
2006,03,14,09,51,8.20
2006,03,14,09,52,8.20
2006,03,14,09,53,8.20
2006,03,14,09,54,8.20
2006,03,14,09,55,8.20
2006,03,14,09,56,8.20
2006,03,14,09,57,8.20
2006,03,14,09,58,8.20
2006,03,14,09,59,8.20
2006,03,14,10,00,8.20
2006,03,14,10,01,8.20
2006,03,14,10,02,8.20
2006,03,14,10,19,9.30
2006,03,14,10,20,9.30
2006,03,14,10,21,9.30
2006,03,14,10,22,9.30
2006,03,14,10,23,9.30
2006,03,14,10,24,9.10
2006,03,14,10,25,9.10
2006,03,14,10,26,8.90
2006,03,14,10,27,8.90
2006,03,14,10,28,8.70
2006,03,14,10,29,8.70
2006,03,14,10,30,8.70
2006,03,14,10,31,8.70
2006,03,14,10,32,8.60
2006,03,14,10,33,8.50
2006,03,14,10,34,8.40
2006,03,14,10,35,8.30
2006,03,14,10,36,8.20
2006,03,14,10,37,8.20
2006,03,14,10,38,8.10
2006,03,14,10,39,8.10
2006,03,14,10,40,8.10
2006,03,14,10,41,8.20
2006,03,14,10,42,8.20
2006,03,14,10,43,8.20
2006,03,14,10,44,8.20
2006,03,14,10,45,8.10
2006,03,14,10,46,8.10
2006,03,14,10,47,8.10
2006,03,14,10,48,8.10
2006,03,14,10,49,8.10
2006,03,14,10,50,8.00
2006,03,14,10,51,7.90
2006,03,14,10,52,7.90
2006,03,14,10,53,7.80
2006,03,14,10,54,7.80
2006,03,14,10,55,7.80
2006,03,14,10,56,7.80
2006,03,14,10,57,7.80
2006,03,14,10,58,7.80
2006,03,14,10,59,7.80
2006,03,14,11,00,7.80
2006,03,14,11,01,7.80
2006,03,14,11,02,7.70
2006,03,14,11,03,7.70
2006,03,14,11,04,7.70
2006,03,14,11,05,7.70
2006,03,14,11,06,7.70
2006,03,14,11,07,7.70
2006,03,14,11,08,7.70
2006,03,14,11,09,7.70
2006,03,14,11,10,7.70
2006,03,14,11,11,7.70
2006,03,14,11,12,7.70
2006,03,14,11,13,7.70
2006,03,14,11,14,7.70
2006,03,14,11,15,7.70
2006,03,14,11,16,7.70
2006,03,14,11,17,7.70
2006,03,14,12,24,8.70
2006,03,14,12,25,8.70
2006,03,14,12,26,8.70
2006,03,14,12,27,8.70
2006,03,14,12,28,8.70
2006,03,14,12,29,8.80
2006,03,14,12,30,8.90
2006,03,14,12,31,8.90
2006,03,14,12,32,9.00
2006,03,14,12,33,9.00
2006,03,14,12,34,9.00
2006,03,14,12,35,9.00
2006,03,14,12,36,9.00
2006,03,14,12,37,9.10
2006,03,14,12,38,9.10
2006,03,14,12,39,9.10
2006,03,14,12,40,9.10
2006,03,14,12,41,9.20
2006,03,14,12,42,9.20
2006,03,14,12,43,9.30
2006,03,14,12,44,9.40
2006,03,14,12,45,9.50
2006,03,14,12,46,9.50
2006,03,14,12,47,9.50
2006,03,14,12,48,9.60
2006,03,14,12,49,9.60
2006,03,14,12,50,9.50
2006,03,14,12,51,9.50
2006,03,14,12,52,9.50
2006,03,14,12,53,9.60
2006,03,14,12,54,9.70
2006,03,14,12,55,9.70
2006,03,14,12,56,9.60
2006,03,14,12,57,9.50
2006,03,14,12,58,9.50
2006,03,14,12,59,9.60
2006,03,14,13,00,9.50
2006,03,14,13,01,9.50
2006,03,14,13,02,9.50
2006,03,14,13,03,9.40
2006,03,14,13,04,9.50
2006,03,14,13,05,9.50
2006,03,14,13,06,9.60
2006,03,14,13,07,9.70
2006,03,14,13,08,9.70
2006,03,14,13,09,9.60
2006,03,14,13,10,9.60
2006,03,14,13,11,9.50
2006,03,14,13,12,9.50
2006,03,14,13,13,9.50
2006,03,14,13,14,9.40
2006,03,14,13,15,9.40
2006,03,14,13,16,9.40
2006,03,14,13,17,9.40
2006,03,14,13,18,9.40
2006,03,14,13,19,9.40
2006,03,14,13,20,9.30
2006,03,14,13,21,9.30
2006,03,14,13,22,9.30
2006,03,14,13,23,9.20
2006,03,14,13,24,9.20
2006,03,14,13,25,9.30
2006,03,14,13,26,9.40
2006,03,14,13,27,9.40
2006,03,14,13,28,9.50
2006,03,14,13,29,9.60
2006,03,14,13,30,9.70
2006,03,14,13,31,9.70
2006,03,14,13,32,9.80
2006,03,14,13,33,9.90
2006,03,14,13,34,9.90
2006,03,14,13,35,9.80
2006,03,14,13,36,9.70
2006,03,14,13,37,9.70
2006,03,14,13,38,9.70
2006,03,14,13,39,9.80
2006,03,14,13,40,9.90
2006,03,14,13,41,9.90
2006,03,14,13,42,9.90
2006,03,14,13,43,9.90
2006,03,14,13,44,9.90
2006,03,14,13,45,9.70
2006,03,14,13,46,9.70
2006,03,14,13,47,9.70
2006,03,14,13,48,9.70
2006,03,14,13,49,9.70
2006,03,14,13,50,9.80
2006,03,14,13,51,9.90
2006,03,14,13,52,9.90
2006,03,14,13,53,9.90
2006,03,14,13,54,9.90
2006,03,14,13,55,9.90
2006,03,14,13,56,9.90
2006,03,14,13,57,9.90
2006,03,14,13,58,9.80
2006,03,14,13,59,9.80
2006,03,14,14,00,9.80
2006,03,14,14,01,9.80
2006,03,14,14,02,9.80
2006,03,14,14,03,9.80
2006,03,14,14,04,9.80
2006,03,14,14,05,9.80
2006,03,14,14,06,9.80
2006,03,14,14,07,9.90
2006,03,14,14,08,9.90
2006,03,14,14,09,9.80
2006,03,14,14,10,9.90
2006,03,14,14,11,9.80
2006,03,14,14,12,9.70
2006,03,14,14,13,9.70
2006,03,14,14,14,9.80
2006,03,14,14,15,9.90
2006,03,14,14,16,9.90
2006,03,14,14,17,10.10
2006,03,14,14,18,9.90
2006,03,14,14,19,9.90
2006,03,14,14,20,9.90
2006,03,14,14,21,9.80
2006,03,14,14,22,9.80
2006,03,14,14,23,9.80
2006,03,14,14,24,9.90
2006,03,14,14,25,10.00
2006,03,14,14,26,10.10
2006,03,14,14,27,10.10
2006,03,14,14,28,10.10
2006,03,14,14,29,10.10
2006,03,14,14,30,10.10
2006,03,14,14,31,10.10
2006,03,14,14,32,10.10
2006,03,14,14,33,10.10
2006,03,14,14,34,10.10
2006,03,14,14,35,10.10
2006,03,14,14,36,10.10
2006,03,14,14,37,10.10
2006,03,14,14,38,10.10
2006,03,14,14,39,10.10
2006,03,14,14,40,10.20
2006,03,14,14,41,10.30
2006,03,14,14,42,10.40
2006,03,14,14,43,10.40
2006,03,14,14,44,10.40
2006,03,14,14,45,10.40
2006,03,14,14,46,10.40
2006,03,14,14,47,10.40
2006,03,14,14,48,10.40
2006,03,14,14,49,10.30
2006,03,14,14,50,10.30
2006,03,14,14,51,10.50
2006,03,14,14,52,10.70
2006,03,14,14,53,10.70
2006,03,14,14,54,10.80
2006,03,14,14,55,10.80
2006,03,14,14,56,10.60
2006,03,14,14,57,10.60
2006,03,14,14,58,10.40
2006,03,14,14,59,10.40
2006,03,14,15,00,10.50
2006,03,14,15,01,10.40
2006,03,14,15,02,10.50
2006,03,14,15,03,10.60
2006,03,14,15,04,10.80
2006,03,14,15,05,10.80
2006,03,14,15,06,10.80
2006,03,14,15,07,10.90
2006,03,14,15,08,11.00
2006,03,14,15,09,11.00
2006,03,14,15,10,10.90
2006,03,14,15,11,10.90
2006,03,14,15,12,10.70
2006,03,14,15,13,10.70
2006,03,14,15,14,10.70
2006,03,14,15,15,10.70
2006,03,14,15,16,10.70
2006,03,14,15,17,10.70
2006,03,14,15,18,10.70
2006,03,14,15,19,10.70
2006,03,14,15,20,10.70
2006,03,14,15,21,10.80
2006,03,14,15,22,10.90
2006,03,14,15,23,10.90
2006,03,14,15,24,10.90
2006,03,14,15,25,10.90
2006,03,14,15,26,10.90
2006,03,14,15,27,10.90
2006,03,14,15,28,11.00
2006,03,14,15,29,11.10
2006,03,14,15,30,11.10
2006,03,14,15,31,11.00
2006,03,14,15,32,10.90
2006,03,14,15,33,10.90
2006,03,14,15,34,10.90
2006,03,14,15,35,10.90
2006,03,14,15,36,11.00
2006,03,14,15,37,11.10
2006,03,14,15,38,11.20
2006,03,14,15,39,11.30
2006,03,14,15,40,11.30
2006,03,14,15,41,11.30
2006,03,14,15,42,11.30
2006,03,14,15,43,11.30
2006,03,14,15,44,11.30
2006,03,14,15,45,11.30
2006,03,14,15,46,11.40
2006,03,14,15,47,11.40
2006,03,14,15,48,11.40
2006,03,14,15,49,11.40
2006,03,14,15,50,11.50
2006,03,14,15,51,11.60
2006,03,14,15,52,11.60
2006,03,14,15,53,11.70
2006,03,14,15,54,11.70
2006,03,14,15,55,11.80
2006,03,14,15,56,11.80
2006,03,14,15,57,11.70
2006,03,14,15,58,11.70
2006,03,14,15,59,11.60
2006,03,14,16,00,11.60
2006,03,14,16,01,11.60
2006,03,14,16,02,11.60
2006,03,14,16,03,11.40
2006,03,14,16,04,11.40
2006,03,14,16,05,11.40
2006,03,14,16,06,11.30
2006,03,14,16,07,11.20
2006,03,14,16,08,11.20
2006,03,14,16,09,11.20
2006,03,14,16,10,11.20
2006,03,14,16,11,11.10
2006,03,14,16,12,11.10
2006,03,14,16,13,11.10
2006,03,14,16,14,11.00
2006,03,14,16,15,10.90
2006,03,14,16,16,10.90
2006,03,14,16,17,10.90
2006,03,14,16,18,10.90
2006,03,14,16,19,10.80
2006,03,14,16,20,10.70
2006,03,14,16,21,10.60
2006,03,14,16,22,10.60
2006,03,14,16,23,10.40
2006,03,14,16,24,10.30
2006,03,14,16,25,10.30
2006,03,14,16,26,10.20
2006,03,14,16,27,10.20
2006,03,14,16,28,10.20
2006,03,14,16,29,10.30
2006,03,14,16,30,10.40
2006,03,14,16,31,10.40
2006,03,14,16,32,10.40
2006,03,14,16,33,10.40
2006,03,14,16,34,10.40
2006,03,14,16,35,10.30
2006,03,14,16,36,10.30
2006,03,14,16,37,10.30
2006,03,14,16,38,10.30
2006,03,14,16,39,10.30
2006,03,14,16,40,10.30
2006,03,14,16,41,10.20
2006,03,14,16,42,10.20
2006,03,14,16,43,10.20
2006,03,14,16,44,10.10
2006,03,14,16,45,10.00
2006,03,14,16,46,9.90
2006,03,14,16,47,9.90
2006,03,14,16,48,9.90
2006,03,14,16,49,9.90
2006,03,14,16,50,9.90
2006,03,14,16,51,9.90
2006,03,14,16,52,9.90
2006,03,14,16,53,9.90
2006,03,14,16,54,9.90
2006,03,14,16,55,9.90
2006,03,14,16,56,9.90
2006,03,14,16,57,9.90
2006,03,14,16,58,9.90
2006,03,14,16,59,9.90
2006,03,14,17,00,9.90
2006,03,14,17,01,9.90
2006,03,14,17,02,9.90
2006,03,14,17,03,9.90
2006,03,14,17,04,9.90
2006,03,14,17,05,9.90
2006,03,14,17,06,9.90
2006,03,14,17,07,9.90
2006,03,14,17,08,10.00
2006,03,14,17,09,10.10
2006,03,14,17,10,10.10
2006,03,14,17,11,10.10
2006,03,14,17,12,10.10
2006,03,14,17,13,10.20
2006,03,14,17,14,10.20
2006,03,14,17,15,10.20
2006,03,14,17,16,10.10
2006,03,14,17,17,10.10
2006,03,14,17,18,10.00
2006,03,14,17,19,9.90
2006,03,14,17,20,9.90
2006,03,14,17,21,9.90
2006,03,14,17,22,9.80
2006,03,14,17,23,9.80
2006,03,14,17,24,9.70
2006,03,14,17,25,9.60
2006,03,14,17,26,9.50
2006,03,14,17,27,9.40
2006,03,14,17,28,9.40
2006,03,14,17,29,9.30
2006,03,14,17,30,9.30
2006,03,14,17,31,9.30
2006,03,14,17,32,9.30
2006,03,14,17,33,9.30
2006,03,14,17,34,9.30
2006,03,14,17,35,9.30
2006,03,14,17,36,9.30
2006,03,14,17,37,9.30
2006,03,14,17,38,9.30
2006,03,14,17,39,9.40
2006,03,14,17,40,9.40
2006,03,14,17,41,9.40
2006,03,14,17,42,9.40
2006,03,14,17,43,9.40
2006,03,14,17,44,9.40
2006,03,14,17,45,9.40
2006,03,14,17,46,9.40
2006,03,14,17,47,9.30
2006,03,14,17,48,9.30
2006,03,14,17,49,9.20
2006,03,14,17,50,9.20
2006,03,14,17,51,9.20
2006,03,14,17,52,9.20
2006,03,14,17,53,9.10
2006,03,14,17,54,9.10
2006,03,14,17,55,9.10
2006,03,14,17,56,9.00
2006,03,14,17,57,9.00
2006,03,14,17,58,9.00
2006,03,14,17,59,9.00
2006,03,14,18,00,9.00
2006,03,14,18,01,9.00
2006,03,14,18,02,9.00
2006,03,14,18,03,8.90
2006,03,14,18,04,8.90
2006,03,14,18,05,8.90
2006,03,14,18,06,8.90
2006,03,14,18,07,8.90
2006,03,14,18,08,8.90
2006,03,14,18,09,8.90
2006,03,14,18,10,8.90
2006,03,14,18,11,8.90
2006,03,14,18,12,8.90
2006,03,14,18,13,8.90
2006,03,14,18,14,8.90
2006,03,14,18,15,8.80
2006,03,14,18,16,8.80
2006,03,14,18,17,8.80
2006,03,14,18,18,8.80
2006,03,14,18,19,8.80
2006,03,14,18,20,8.80
2006,03,14,18,21,8.80
2006,03,14,18,22,8.80
2006,03,14,18,23,8.80
2006,03,14,18,24,8.80
2006,03,14,18,25,8.70
2006,03,14,18,26,8.70
2006,03,14,18,27,8.70
2006,03,14,18,28,8.70
2006,03,14,18,29,8.70
2006,03,14,18,30,8.70
2006,03,14,18,31,8.70
2006,03,14,18,32,8.70
2006,03,14,18,33,8.70
2006,03,14,18,34,8.60
2006,03,14,18,35,8.60
2006,03,14,18,36,8.60
2006,03,14,18,37,8.60
2006,03,14,18,38,8.50
2006,03,14,18,39,8.50
2006,03,14,18,40,8.50
2006,03,14,18,41,8.50
2006,03,14,18,42,8.50
2006,03,14,18,43,8.50
2006,03,14,18,44,8.50
2006,03,14,18,45,8.50
2006,03,14,18,46,8.50
2006,03,14,18,47,8.50
2006,03,14,18,48,8.40
2006,03,14,18,49,8.40
2006,03,14,18,50,8.40
2006,03,14,18,51,8.40
2006,03,14,18,52,8.40
2006,03,14,18,53,8.40
2006,03,14,18,54,8.40
2006,03,14,18,55,8.40
2006,03,14,18,56,8.40
2006,03,14,18,57,8.40
2006,03,14,18,58,8.40
2006,03,14,18,59,8.40
2006,03,14,19,00,8.40
2006,03,14,19,01,8.40
2006,03,14,19,02,8.30
2006,03,14,19,03,8.30
2006,03,14,19,04,8.30
2006,03,14,19,05,8.30
2006,03,14,19,06,8.30
2006,03,14,19,07,8.20
2006,03,14,19,08,8.20
2006,03,14,19,09,8.20
2006,03,14,19,10,8.20
2006,03,14,19,11,8.20
2006,03,14,19,12,8.20
2006,03,14,19,13,8.20
2006,03,14,19,14,8.20
2006,03,14,19,15,8.10
2006,03,14,19,16,8.10
2006,03,14,19,17,8.10
2006,03,14,19,18,8.10
2006,03,14,19,19,8.00
2006,03,14,19,20,8.00
2006,03,14,19,21,8.00